BKB5 KMFR-KSEA

Flight info

Callsign BKB5
Flight time 1h 17m
Altitude 30000
Route JKSN1 OED J1 BTG OLM2
Aircraft P46T/L-SBDGRWY/SB1

Departure

Time 2026-04-20 17:17
Airport Rogue Valley International-Medford Airport (KMFR)

Arrival

Time 2026-04-20 18:34
Airport Seattle–Tacoma International Airport (KSEA)
Time Latitude Longitude Altitude Speed Heading
2026-04-20 17:09 42.37127 -122.87607 1320 ft 0 kts 294°
2026-04-20 17:13 42.37130 -122.87616 1320 ft 5 kts 291°
2026-04-20 17:13 42.37163 -122.87624 1320 ft 6 kts 15°
2026-04-20 17:13 42.37203 -122.87591 1320 ft 8 kts 25°
2026-04-20 17:13 42.37201 -122.87525 1319 ft 9 kts 92°
2026-04-20 17:14 42.37220 -122.87437 1318 ft 11 kts 106°
2026-04-20 17:14 42.37240 -122.87360 1319 ft 11 kts 358°
2026-04-20 17:14 42.37318 -122.87392 1318 ft 12 kts 341°
2026-04-20 17:14 42.37403 -122.87434 1318 ft 14 kts 339°
2026-04-20 17:15 42.37498 -122.87495 1315 ft 16 kts 335°
2026-04-20 17:15 42.37604 -122.87555 1315 ft 16 kts 339°
2026-04-20 17:15 42.37711 -122.87606 1314 ft 17 kts 341°
2026-04-20 17:15 42.37823 -122.87661 1313 ft 17 kts 338°
2026-04-20 17:16 42.37929 -122.87717 1314 ft 16 kts 339°
2026-04-20 17:16 42.38043 -122.87731 1310 ft 17 kts 37°
2026-04-20 17:16 42.38063 -122.87632 1308 ft 7 kts 127°
2026-04-20 17:16 42.37936 -122.87562 1311 ft 43 kts 160°
2026-04-20 17:17 42.37490 -122.87327 1316 ft 92 kts 159°
2026-04-20 17:17 42.37040 -122.87082 1359 ft 112 kts 155°
2026-04-20 17:17 42.36310 -122.86611 1699 ft 117 kts 151°
2026-04-20 17:17 42.35526 -122.86257 1977 ft 130 kts 183°
2026-04-20 17:18 42.34774 -122.86960 2235 ft 146 kts 237°
2026-04-20 17:18 42.34648 -122.88391 2485 ft 158 kts 279°
2026-04-20 17:18 42.35273 -122.89492 3047 ft 148 kts 330°
2026-04-20 17:18 42.36546 -122.90144 3597 ft 151 kts 338°
2026-04-20 17:19 42.37214 -122.90493 3853 ft 154 kts 336°
2026-04-20 17:19 42.38221 -122.91067 4195 ft 160 kts 334°
2026-04-20 17:19 42.39251 -122.91680 4553 ft 164 kts 334°
2026-04-20 17:19 42.40303 -122.92312 4906 ft 168 kts 333°
2026-04-20 17:20 42.41428 -122.92865 5183 ft 176 kts 353°
2026-04-20 17:20 42.42627 -122.92737 5594 ft 172 kts 16°
2026-04-20 17:20 42.43804 -122.92402 5979 ft 174 kts 15°
2026-04-20 17:20 42.44998 -122.92086 6374 ft 176 kts 15°
2026-04-20 17:21 42.46208 -122.91768 6733 ft 179 kts 15°
2026-04-20 17:21 42.47440 -122.91444 7114 ft 182 kts 16°
2026-04-20 17:21 42.48714 -122.91221 7436 ft 187 kts
2026-04-20 17:21 42.50008 -122.91120 7772 ft 190 kts
2026-04-20 17:22 42.51340 -122.90995 8111 ft 194 kts
2026-04-20 17:22 42.52696 -122.90866 8459 ft 196 kts
2026-04-20 17:22 42.54069 -122.90737 8802 ft 199 kts
2026-04-20 17:22 42.55464 -122.90607 9162 ft 203 kts
2026-04-20 17:23 42.56880 -122.90474 9515 ft 205 kts
2026-04-20 17:23 42.58317 -122.90340 9839 ft 209 kts
2026-04-20 17:23 42.59778 -122.90203 10180 ft 211 kts
2026-04-20 17:23 42.61248 -122.90067 10513 ft 213 kts
2026-04-20 17:24 42.62726 -122.89930 10838 ft 213 kts
2026-04-20 17:24 42.64209 -122.89792 11190 ft 214 kts
2026-04-20 17:24 42.65696 -122.89649 11522 ft 215 kts
2026-04-20 17:24 42.67193 -122.89511 11838 ft 216 kts
2026-04-20 17:25 42.68698 -122.89372 12149 ft 217 kts
2026-04-20 17:25 42.70200 -122.89228 12504 ft 216 kts
2026-04-20 17:25 42.71709 -122.89088 12799 ft 219 kts
2026-04-20 17:25 42.73236 -122.88947 13137 ft 220 kts
2026-04-20 17:26 42.74768 -122.88801 13487 ft 221 kts
2026-04-20 17:26 42.76308 -122.88658 13781 ft 222 kts
2026-04-20 17:26 42.77856 -122.88514 14064 ft 224 kts
2026-04-20 17:26 42.79416 -122.88363 14260 ft 226 kts
2026-04-20 17:27 42.80998 -122.88216 14519 ft 228 kts
2026-04-20 17:27 42.82568 -122.88081 14788 ft 226 kts
2026-04-20 17:27 42.84140 -122.87922 15011 ft 227 kts
2026-04-20 17:27 42.85715 -122.87761 15242 ft 228 kts
2026-04-20 17:28 42.87304 -122.87621 15423 ft 230 kts
2026-04-20 17:28 42.88897 -122.87475 15687 ft 229 kts
2026-04-20 17:28 42.90492 -122.87321 15925 ft 230 kts
2026-04-20 17:28 42.92095 -122.87166 16140 ft 231 kts
2026-04-20 17:29 42.93704 -122.87016 16348 ft 232 kts
2026-04-20 17:29 42.95321 -122.86864 16512 ft 233 kts
2026-04-20 17:29 42.96944 -122.86721 16640 ft 234 kts
2026-04-20 17:29 42.98567 -122.86575 16839 ft 233 kts
2026-04-20 17:30 43.00188 -122.86391 17058 ft 235 kts
2026-04-20 17:30 43.01822 -122.86240 17263 ft 236 kts
2026-04-20 17:30 43.03458 -122.86096 17482 ft 236 kts
2026-04-20 17:30 43.05095 -122.85940 17677 ft 236 kts
2026-04-20 17:31 43.06737 -122.85781 17853 ft 237 kts
2026-04-20 17:31 43.08382 -122.85625 18031 ft 237 kts
2026-04-20 17:31 43.10033 -122.85466 18174 ft 237 kts
2026-04-20 17:31 43.11684 -122.85313 18327 ft 238 kts
2026-04-20 17:32 43.13314 -122.85164 18464 ft 239 kts
2026-04-20 17:32 43.14972 -122.84998 18616 ft 239 kts
2026-04-20 17:32 43.16635 -122.84837 18753 ft 240 kts
2026-04-20 17:32 43.18300 -122.84681 18910 ft 240 kts
2026-04-20 17:33 43.19967 -122.84522 19018 ft 241 kts
2026-04-20 17:33 43.21641 -122.84365 19114 ft 241 kts
2026-04-20 17:33 43.23317 -122.84207 19260 ft 241 kts
2026-04-20 17:33 43.24993 -122.84043 19416 ft 241 kts
2026-04-20 17:34 43.26665 -122.83886 19563 ft 241 kts
2026-04-20 17:34 43.28338 -122.83716 19634 ft 242 kts
2026-04-20 17:34 43.30026 -122.83567 19706 ft 243 kts
2026-04-20 17:34 43.31709 -122.83421 19783 ft 242 kts
2026-04-20 17:35 43.33391 -122.83237 19921 ft 242 kts
2026-04-20 17:35 43.35073 -122.83074 20023 ft 243 kts
2026-04-20 17:35 43.36763 -122.82927 20133 ft 243 kts
2026-04-20 17:35 43.38454 -122.82756 20228 ft 244 kts
2026-04-20 17:36 43.40147 -122.82590 20306 ft 244 kts
2026-04-20 17:36 43.41833 -122.82433 20419 ft 242 kts
2026-04-20 17:36 43.43517 -122.82267 20501 ft 243 kts
2026-04-20 17:36 43.45208 -122.82120 20553 ft 244 kts
2026-04-20 17:37 43.46900 -122.81944 20628 ft 244 kts
2026-04-20 17:37 43.48595 -122.81773 20716 ft 245 kts
2026-04-20 17:37 43.50295 -122.81616 20800 ft 245 kts
2026-04-20 17:37 43.51998 -122.81453 20918 ft 245 kts
2026-04-20 17:38 43.53702 -122.81296 20893 ft 246 kts
2026-04-20 17:38 43.55406 -122.81115 20998 ft 246 kts
2026-04-20 17:38 43.57114 -122.80954 21113 ft 246 kts
2026-04-20 17:38 43.58828 -122.80814 21170 ft 247 kts
2026-04-20 17:39 43.60516 -122.80634 21318 ft 246 kts
2026-04-20 17:39 43.62228 -122.80461 21448 ft 247 kts
2026-04-20 17:39 43.63950 -122.80307 21464 ft 249 kts
2026-04-20 17:39 43.65669 -122.80089 21535 ft 248 kts
2026-04-20 17:40 43.67399 -122.79963 21691 ft 249 kts
2026-04-20 17:40 43.69131 -122.79825 21835 ft 249 kts
2026-04-20 17:40 43.70858 -122.79641 21948 ft 249 kts
2026-04-20 17:40 43.72576 -122.79464 22162 ft 247 kts
2026-04-20 17:41 43.74289 -122.79298 22303 ft 247 kts
2026-04-20 17:41 43.76006 -122.79133 22457 ft 248 kts
2026-04-20 17:41 43.77729 -122.78967 22618 ft 249 kts
2026-04-20 17:41 43.79458 -122.78798 22780 ft 250 kts
2026-04-20 17:42 43.81194 -122.78629 22943 ft 250 kts
2026-04-20 17:42 43.82931 -122.78461 23104 ft 250 kts
2026-04-20 17:42 43.84674 -122.78291 23251 ft 252 kts
2026-04-20 17:42 43.86421 -122.78120 23443 ft 252 kts
2026-04-20 17:43 43.88173 -122.77950 23605 ft 253 kts
2026-04-20 17:43 43.89934 -122.77777 23765 ft 254 kts
2026-04-20 17:43 43.91710 -122.77606 23868 ft 259 kts
2026-04-20 17:43 43.93539 -122.77425 23869 ft 268 kts
2026-04-20 17:44 43.95419 -122.77240 23869 ft 274 kts
2026-04-20 17:44 43.97342 -122.77052 23871 ft 279 kts
2026-04-20 17:44 43.99297 -122.76861 23871 ft 284 kts
2026-04-20 17:44 44.01279 -122.76668 23864 ft 287 kts
2026-04-20 17:45 44.03277 -122.76471 23850 ft 288 kts
2026-04-20 17:45 44.05281 -122.76272 23852 ft 288 kts
2026-04-20 17:45 44.07284 -122.76077 23855 ft 289 kts
2026-04-20 17:45 44.09290 -122.75881 23859 ft 290 kts
2026-04-20 17:46 44.11303 -122.75683 23859 ft 291 kts
2026-04-20 17:46 44.13294 -122.75487 23870 ft 290 kts
2026-04-20 17:46 44.15313 -122.75289 23855 ft 291 kts
2026-04-20 17:46 44.17330 -122.75090 23854 ft 290 kts
2026-04-20 17:47 44.19343 -122.74892 23859 ft 290 kts
2026-04-20 17:47 44.21359 -122.74694 23855 ft 290 kts
2026-04-20 17:47 44.23378 -122.74494 23857 ft 290 kts
2026-04-20 17:47 44.25389 -122.74296 23857 ft 290 kts
2026-04-20 17:48 44.27399 -122.74098 23861 ft 290 kts
2026-04-20 17:48 44.29413 -122.73898 23853 ft 290 kts
2026-04-20 17:48 44.31425 -122.73699 23847 ft 289 kts
2026-04-20 17:48 44.33435 -122.73501 23856 ft 290 kts
2026-04-20 17:49 44.35451 -122.73299 23837 ft 291 kts
2026-04-20 17:49 44.37473 -122.73099 23842 ft 291 kts
2026-04-20 17:49 44.39497 -122.72901 23843 ft 291 kts
2026-04-20 17:49 44.41487 -122.72703 23841 ft 291 kts
2026-04-20 17:50 44.43510 -122.72501 23844 ft 292 kts
2026-04-20 17:50 44.45535 -122.72300 23842 ft 291 kts
2026-04-20 17:50 44.47556 -122.72099 23843 ft 292 kts
2026-04-20 17:50 44.49583 -122.71897 23842 ft 292 kts
2026-04-20 17:51 44.51611 -122.71696 23846 ft 292 kts
2026-04-20 17:51 44.53640 -122.71494 23838 ft 292 kts
2026-04-20 17:51 44.55669 -122.71292 23836 ft 292 kts
2026-04-20 17:51 44.57695 -122.71088 23840 ft 292 kts
2026-04-20 17:52 44.59723 -122.70887 23841 ft 292 kts
2026-04-20 17:52 44.61746 -122.70684 23849 ft 291 kts
2026-04-20 17:52 44.63764 -122.70482 23851 ft 290 kts
2026-04-20 17:52 44.65779 -122.70281 23852 ft 290 kts
2026-04-20 17:53 44.67787 -122.70085 23829 ft 288 kts
2026-04-20 17:53 44.69788 -122.69880 23834 ft 288 kts
2026-04-20 17:53 44.71787 -122.69676 23834 ft 288 kts
2026-04-20 17:53 44.73788 -122.69477 23834 ft 288 kts
2026-04-20 17:54 44.75792 -122.69278 23833 ft 289 kts
2026-04-20 17:54 44.77791 -122.69077 23840 ft 287 kts
2026-04-20 17:54 44.79788 -122.68876 23844 ft 288 kts
2026-04-20 17:54 44.81789 -122.68674 23844 ft 289 kts
2026-04-20 17:55 44.83792 -122.68472 23852 ft 289 kts
2026-04-20 17:55 44.85794 -122.68268 23847 ft 288 kts
2026-04-20 17:55 44.87797 -122.68068 23852 ft 288 kts
2026-04-20 17:55 44.89800 -122.67868 23854 ft 289 kts
2026-04-20 17:56 44.91805 -122.67666 23852 ft 289 kts
2026-04-20 17:56 44.93813 -122.67461 23854 ft 289 kts
2026-04-20 17:56 44.95822 -122.67257 23855 ft 290 kts
2026-04-20 17:56 44.97833 -122.67054 23857 ft 289 kts
2026-04-20 17:57 44.99840 -122.66850 23845 ft 289 kts
2026-04-20 17:57 45.01821 -122.66650 23853 ft 290 kts
2026-04-20 17:57 45.03856 -122.66445 23854 ft 289 kts
2026-04-20 17:57 45.05867 -122.66241 23857 ft 290 kts
2026-04-20 17:58 45.07850 -122.66039 23864 ft 290 kts
2026-04-20 17:58 45.09889 -122.65832 23864 ft 290 kts
2026-04-20 17:58 45.11873 -122.65630 23866 ft 290 kts
2026-04-20 17:58 45.13884 -122.65425 23866 ft 290 kts
2026-04-20 17:59 45.15897 -122.65221 23866 ft 290 kts
2026-04-20 17:59 45.17907 -122.65016 23867 ft 290 kts
2026-04-20 17:59 45.19917 -122.64811 23868 ft 290 kts
2026-04-20 17:59 45.21926 -122.64606 23868 ft 290 kts
2026-04-20 18:00 45.23938 -122.64401 23870 ft 289 kts
2026-04-20 18:00 45.25945 -122.64195 23869 ft 289 kts
2026-04-20 18:00 45.27954 -122.63989 23868 ft 289 kts
2026-04-20 18:00 45.29962 -122.63784 23871 ft 290 kts
2026-04-20 18:01 45.31970 -122.63579 23876 ft 289 kts
2026-04-20 18:01 45.33979 -122.63373 23861 ft 288 kts
2026-04-20 18:01 45.35979 -122.63168 23856 ft 288 kts
2026-04-20 18:01 45.37979 -122.62962 23854 ft 288 kts
2026-04-20 18:02 45.39973 -122.62758 23853 ft 287 kts
2026-04-20 18:02 45.41965 -122.62553 23846 ft 287 kts
2026-04-20 18:02 45.43957 -122.62348 23845 ft 287 kts
2026-04-20 18:02 45.45949 -122.62143 23844 ft 287 kts
2026-04-20 18:03 45.47941 -122.61938 23844 ft 287 kts
2026-04-20 18:03 45.49932 -122.61733 23844 ft 287 kts
2026-04-20 18:03 45.51896 -122.61530 23844 ft 287 kts
2026-04-20 18:03 45.53886 -122.61325 23847 ft 287 kts
2026-04-20 18:04 45.55872 -122.61119 23850 ft 285 kts
2026-04-20 18:04 45.57849 -122.60916 23851 ft 284 kts
2026-04-20 18:04 45.59821 -122.60712 23850 ft 284 kts
2026-04-20 18:04 45.61789 -122.60508 23851 ft 284 kts
2026-04-20 18:05 45.65728 -122.60100 23865 ft 284 kts
2026-04-20 18:05 45.67694 -122.59896 23864 ft 283 kts
2026-04-20 18:05 45.69659 -122.59692 23865 ft 283 kts
2026-04-20 18:06 45.71622 -122.59488 23870 ft 283 kts
2026-04-20 18:06 45.73583 -122.59285 23870 ft 283 kts
2026-04-20 18:06 45.75544 -122.59336 23864 ft 281 kts 349°
2026-04-20 18:06 45.77464 -122.59836 23869 ft 280 kts 348°
2026-04-20 18:07 45.79386 -122.60309 23871 ft 280 kts 349°
2026-04-20 18:07 45.81305 -122.60774 23869 ft 279 kts 348°
2026-04-20 18:07 45.83214 -122.61249 23875 ft 279 kts 348°
2026-04-20 18:07 45.85123 -122.61728 23877 ft 278 kts 348°
2026-04-20 18:08 45.86386 -122.62042 23872 ft 278 kts 348°
2026-04-20 18:08 45.88294 -122.62517 23872 ft 278 kts 348°
2026-04-20 18:08 45.90199 -122.62991 23858 ft 278 kts 348°
2026-04-20 18:08 45.92106 -122.63466 23868 ft 277 kts 348°
2026-04-20 18:09 45.94619 -122.64093 23868 ft 277 kts 348°
2026-04-20 18:09 45.95899 -122.64413 23866 ft 277 kts 348°
2026-04-20 18:09 45.97798 -122.64888 23867 ft 277 kts 348°
2026-04-20 18:09 45.99695 -122.65362 23879 ft 276 kts 349°
2026-04-20 18:10 46.01585 -122.65834 23884 ft 275 kts 349°
2026-04-20 18:10 46.03467 -122.66305 23885 ft 274 kts 349°
2026-04-20 18:10 46.05346 -122.66777 23882 ft 274 kts 349°
2026-04-20 18:10 46.07223 -122.67248 23873 ft 274 kts 348°
2026-04-20 18:11 46.09092 -122.67717 23871 ft 272 kts 349°
2026-04-20 18:11 46.10951 -122.68183 23867 ft 271 kts 348°
2026-04-20 18:11 46.12809 -122.68650 23867 ft 271 kts 349°
2026-04-20 18:11 46.14661 -122.69110 23869 ft 270 kts 349°
2026-04-20 18:12 46.16508 -122.69579 23873 ft 268 kts 348°
2026-04-20 18:12 46.18348 -122.70047 23880 ft 269 kts 348°
2026-04-20 18:12 46.20192 -122.70509 23879 ft 269 kts 349°
2026-04-20 18:12 46.22033 -122.70972 23879 ft 269 kts 348°
2026-04-20 18:13 46.23873 -122.71436 23875 ft 268 kts 348°
2026-04-20 18:13 46.25685 -122.71894 23870 ft 268 kts 348°
2026-04-20 18:13 46.27520 -122.72358 23868 ft 267 kts 348°
2026-04-20 18:13 46.29351 -122.72821 23868 ft 267 kts 348°
2026-04-20 18:14 46.31183 -122.73284 23870 ft 267 kts 348°
2026-04-20 18:14 46.33035 -122.73753 23871 ft 267 kts 348°
2026-04-20 18:14 46.34860 -122.74215 23870 ft 266 kts 348°
2026-04-20 18:14 46.36662 -122.74672 23868 ft 266 kts 348°
2026-04-20 18:15 46.38485 -122.75134 23871 ft 265 kts 348°
2026-04-20 18:15 46.40301 -122.75595 23871 ft 265 kts 348°
2026-04-20 18:15 46.42120 -122.76058 23876 ft 265 kts 348°
2026-04-20 18:15 46.43937 -122.76519 23869 ft 265 kts 349°
2026-04-20 18:16 46.45750 -122.76980 23870 ft 264 kts 349°
2026-04-20 18:16 46.47560 -122.77441 23871 ft 264 kts 349°
2026-04-20 18:16 46.49369 -122.77902 23870 ft 264 kts 349°
2026-04-20 18:16 46.51179 -122.78363 23871 ft 264 kts 349°
2026-04-20 18:17 46.52982 -122.78823 23875 ft 263 kts 349°
2026-04-20 18:17 46.54782 -122.79282 23870 ft 262 kts 349°
2026-04-20 18:17 46.56578 -122.79741 23868 ft 262 kts 349°
2026-04-20 18:17 46.58369 -122.80199 23868 ft 261 kts 349°
2026-04-20 18:18 46.60159 -122.80656 23870 ft 261 kts 349°
2026-04-20 18:18 46.61943 -122.81113 23872 ft 260 kts 349°
2026-04-20 18:18 46.63729 -122.81571 23870 ft 260 kts 349°
2026-04-20 18:18 46.65508 -122.82027 23877 ft 260 kts 349°
2026-04-20 18:19 46.67285 -122.82482 23877 ft 259 kts 349°
2026-04-20 18:19 46.69057 -122.82937 23877 ft 258 kts 349°
2026-04-20 18:19 46.70822 -122.83390 23876 ft 258 kts 349°
2026-04-20 18:19 46.72587 -122.83843 23875 ft 257 kts 349°
2026-04-20 18:20 46.74348 -122.84296 23875 ft 257 kts 349°
2026-04-20 18:20 46.76108 -122.84749 23873 ft 257 kts 349°
2026-04-20 18:20 46.77867 -122.85202 23873 ft 257 kts 349°
2026-04-20 18:20 46.79627 -122.85655 23872 ft 257 kts 349°
2026-04-20 18:21 46.81384 -122.86108 23869 ft 256 kts 349°
2026-04-20 18:21 46.83137 -122.86561 23869 ft 256 kts 349°
2026-04-20 18:21 46.84886 -122.87011 23872 ft 255 kts 349°
2026-04-20 18:21 46.86635 -122.87463 23871 ft 255 kts 349°
2026-04-20 18:22 46.88380 -122.87916 23878 ft 254 kts 350°
2026-04-20 18:22 46.90120 -122.88365 23877 ft 254 kts 350°
2026-04-20 18:22 46.91860 -122.88815 23875 ft 253 kts 350°
2026-04-20 18:22 46.93594 -122.89264 23875 ft 253 kts 349°
2026-04-20 18:23 46.95331 -122.89630 23868 ft 252 kts 359°
2026-04-20 18:23 46.97050 -122.89299 23870 ft 249 kts 19°
2026-04-20 18:23 46.98602 -122.88263 23865 ft 243 kts 38°
2026-04-20 18:23 46.99896 -122.86725 23874 ft 239 kts 46°
2026-04-20 18:24 47.01150 -122.85122 23878 ft 239 kts 46°
2026-04-20 18:24 47.02408 -122.83525 23881 ft 239 kts 46°
2026-04-20 18:24 47.03661 -122.81931 23879 ft 233 kts 46°
2026-04-20 18:24 47.04824 -122.80450 23519 ft 223 kts 47°
2026-04-20 18:25 47.06012 -122.78917 22764 ft 230 kts 46°
2026-04-20 18:25 47.07256 -122.77316 21525 ft 249 kts 46°
2026-04-20 18:25 47.08617 -122.75571 19992 ft 271 kts 45°
2026-04-20 18:25 47.10071 -122.73724 18866 ft 275 kts 45°
2026-04-20 18:26 47.11467 -122.71958 18237 ft 258 kts 45°
2026-04-20 18:26 47.12811 -122.70235 17251 ft 255 kts 46°
2026-04-20 18:26 47.14134 -122.68534 16334 ft 250 kts 46°
2026-04-20 18:26 47.15434 -122.66867 15458 ft 246 kts 46°
2026-04-20 18:27 47.16710 -122.65232 14609 ft 241 kts 46°
2026-04-20 18:27 47.17961 -122.63625 13760 ft 237 kts 46°
2026-04-20 18:27 47.19199 -122.62035 12837 ft 235 kts 46°
2026-04-20 18:27 47.20421 -122.60465 11961 ft 232 kts 46°
2026-04-20 18:28 47.21625 -122.58918 11156 ft 233 kts 46°
2026-04-20 18:28 47.22840 -122.57363 10870 ft 228 kts 46°
2026-04-20 18:28 47.24028 -122.55836 10538 ft 227 kts 46°
2026-04-20 18:28 47.25209 -122.54309 10283 ft 225 kts 46°
2026-04-20 18:29 47.26387 -122.52796 10023 ft 224 kts 46°
2026-04-20 18:29 47.27547 -122.51276 9753 ft 221 kts 50°
2026-04-20 18:29 47.28411 -122.49449 9462 ft 215 kts 65°
2026-04-20 18:29 47.29125 -122.47525 9184 ft 214 kts 66°
2026-04-20 18:30 47.29825 -122.45598 8911 ft 213 kts 67°
2026-04-20 18:30 47.30517 -122.43677 8664 ft 211 kts 67°
2026-04-20 18:30 47.31203 -122.41763 8413 ft 211 kts 66°
2026-04-20 18:30 47.31864 -122.39906 7729 ft 204 kts 67°
2026-04-20 18:31 47.32507 -122.38030 6894 ft 204 kts 67°
2026-04-20 18:31 47.33134 -122.36172 6103 ft 201 kts 66°
2026-04-20 18:31 47.33745 -122.34331 5310 ft 199 kts 66°
2026-04-20 18:31 47.34336 -122.32504 4565 ft 197 kts 67°
2026-04-20 18:32 47.34946 -122.30736 3809 ft 191 kts 58°
2026-04-20 18:32 47.36010 -122.29605 3149 ft 191 kts 19°
2026-04-20 18:32 47.37274 -122.29670 2572 ft 175 kts 348°
2026-04-20 18:32 47.38440 -122.30146 1895 ft 173 kts 347°
2026-04-20 18:33 47.39575 -122.30708 1454 ft 170 kts 345°
2026-04-20 18:33 47.40642 -122.31119 1091 ft 145 kts 352°
2026-04-20 18:33 47.41537 -122.31168 886 ft 110 kts
2026-04-20 18:33 47.42271 -122.31190 709 ft 102 kts
2026-04-20 18:34 47.42963 -122.31155 552 ft 99 kts
2026-04-20 18:34 47.43653 -122.31138 418 ft 99 kts
2026-04-20 18:34 47.44301 -122.31121 383 ft 86 kts
2026-04-20 18:34 47.44743 -122.31114 393 ft 44 kts
2026-04-20 18:35 47.44929 -122.31098 399 ft 14 kts 15°
2026-04-20 18:35 47.45023 -122.31051 402 ft 18 kts 25°
2026-04-20 18:35 47.45143 -122.30954 408 ft 20 kts 28°
2026-04-20 18:35 47.45221 -122.30840 414 ft 0 kts 83°
2026-04-20 18:36 47.45233 -122.30762 412 ft 20 kts 82°
2026-04-20 18:36 47.45267 -122.30626 414 ft 13 kts
2026-04-20 18:36 47.45398 -122.30623 420 ft 17 kts
2026-04-20 18:36 47.45501 -122.30623 424 ft 13 kts
2026-04-20 18:37 47.45576 -122.30623 423 ft 10 kts
2026-04-20 18:37 47.45634 -122.30624 424 ft 7 kts 359°
2026-04-20 18:37 47.45696 -122.30607 428 ft 9 kts 40°
2026-04-20 18:37 47.45714 -122.30526 435 ft 8 kts 87°
2026-04-20 18:38 47.45713 -122.30453 433 ft 7 kts 88°
2026-04-20 18:38 47.45721 -122.30393 432 ft 5 kts 45°
2026-04-20 18:38 47.45744 -122.30380 426 ft 2 kts 358°
2026-04-20 18:38 47.45749 -122.30387 433 ft 0 kts 275°